Time,TemperatureF,DewpointF,PressureIn,WindDirection,WindDirectionDegrees,WindSpeedMPH,WindSpeedGustMPH,Humidity,HourlyPrecipIn,Conditions,Clouds,dailyrainin,SoftwareType,DateUTC
2013-03-08 00:02:00,36.0,30.0,30.08,NW,321,1.0,3.0,80,0.00,,,0.00,,2013-03-08 05:02:00,
2013-03-08 00:12:00,36.0,30.0,30.08,NW,321,1.0,3.0,80,0.00,,,0.00,,2013-03-08 05:12:00,
2013-03-08 00:22:00,36.0,30.0,30.08,NNW,336,0.0,2.0,80,0.00,,,0.00,,2013-03-08 05:22:00,
2013-03-08 00:32:00,36.0,30.0,30.07,North,351,1.0,2.0,79,0.00,,,0.00,,2013-03-08 05:32:00,
2013-03-08 00:42:00,36.0,30.0,30.07,North,351,1.0,2.0,79,0.00,,,0.00,,2013-03-08 05:42:00,
2013-03-08 00:52:00,36.0,29.0,30.07,NNE,30,2.0,6.0,75,0.00,,,0.00,,2013-03-08 05:52:00,
2013-03-08 01:01:00,37.0,28.0,30.07,North,9,5.0,9.0,71,0.00,,,0.00,,2013-03-08 06:01:00,
2013-03-08 01:11:00,37.0,28.0,30.07,North,9,5.0,9.0,71,0.00,,,0.00,,2013-03-08 06:11:00,
2013-03-08 01:22:00,37.0,28.0,30.07,NNW,347,5.0,8.0,71,0.00,,,0.00,,2013-03-08 06:22:00,
2013-03-08 01:32:00,36.0,28.0,30.08,SW,232,4.0,8.0,71,0.00,,,0.00,,2013-03-08 06:32:00,
2013-03-08 01:42:00,36.0,28.0,30.08,SW,232,4.0,8.0,71,0.00,,,0.00,,2013-03-08 06:42:00,
2013-03-08 01:52:00,36.0,28.0,30.08,NNE,20,4.0,7.0,73,0.00,,,0.00,,2013-03-08 06:52:00,
2013-03-08 02:01:00,35.0,29.0,30.08,North,351,2.0,6.0,77,0.00,,,0.00,,2013-03-08 07:01:00,
2013-03-08 02:11:00,35.0,29.0,30.08,North,351,2.0,6.0,77,0.00,,,0.00,,2013-03-08 07:11:00,
2013-03-08 02:22:00,34.0,28.0,30.08,NNW,340,3.0,10.0,78,0.00,,,0.00,,2013-03-08 07:22:00,
2013-03-08 02:32:00,34.0,28.0,30.07,WNW,290,6.0,11.0,79,0.00,,,0.00,,2013-03-08 07:32:00,
2013-03-08 02:42:00,34.0,28.0,30.07,WNW,290,6.0,11.0,79,0.00,,,0.00,,2013-03-08 07:42:00,
2013-03-08 02:52:00,33.0,28.0,30.07,North,355,2.0,9.0,83,0.00,,,0.00,,2013-03-08 07:52:00,
2013-03-08 03:01:00,33.0,28.0,30.07,North,355,2.0,9.0,83,0.00,,,0.00,,2013-03-08 08:01:00,
2013-03-08 03:11:00,33.0,28.0,30.07,North,355,2.0,9.0,83,0.00,,,0.00,,2013-03-08 08:11:00,
2013-03-08 03:22:00,32.0,28.0,30.06,NNW,348,3.0,8.0,85,0.00,,,0.00,,2013-03-08 08:22:00,
2013-03-08 03:32:00,32.0,28.0,30.06,NNW,348,3.0,8.0,85,0.00,,,0.00,,2013-03-08 08:32:00,
2013-03-08 03:42:00,32.0,28.0,30.06,NNW,348,3.0,8.0,85,0.00,,,0.00,,2013-03-08 08:42:00,
2013-03-08 03:52:00,31.0,28.0,30.06,NNW,348,1.0,5.0,88,0.00,,,0.00,,2013-03-08 08:52:00,
2013-03-08 04:03:00,31.0,28.0,30.06,NNE,12,4.0,8.0,89,0.00,,,0.00,,2013-03-08 09:03:00,
2013-03-08 04:11:00,31.0,28.0,30.06,NNE,12,4.0,8.0,89,0.00,,,0.00,,2013-03-08 09:11:00,
2013-03-08 04:21:00,31.0,29.0,30.05,NNW,341,3.0,8.0,91,0.00,,,0.00,,2013-03-08 09:21:00,
2013-03-08 04:32:00,30.0,28.0,30.05,NNW,347,2.0,6.0,92,0.00,,,0.00,,2013-03-08 09:32:00,
2013-03-08 04:42:00,30.0,28.0,30.05,NNW,347,2.0,6.0,92,0.00,,,0.00,,2013-03-08 09:42:00,
2013-03-08 04:52:00,30.0,28.0,30.05,NNW,347,2.0,6.0,92,0.00,,,0.00,,2013-03-08 09:52:00,
2013-03-08 05:01:00,30.0,28.0,30.05,NNW,347,2.0,6.0,92,0.00,,,0.00,,2013-03-08 10:01:00,
2013-03-08 05:11:00,30.0,28.0,30.05,NNW,347,2.0,6.0,92,0.00,,,0.00,,2013-03-08 10:11:00,
2013-03-08 05:21:00,30.0,28.0,30.05,North,349,2.0,6.0,92,0.00,,,0.00,,2013-03-08 10:21:00,
2013-03-08 05:32:00,30.0,28.0,30.05,North,349,2.0,6.0,92,0.00,,,0.00,,2013-03-08 10:32:00,
2013-03-08 05:42:00,30.0,28.0,30.05,North,349,2.0,6.0,92,0.00,,,0.00,,2013-03-08 10:42:00,
2013-03-08 05:52:00,30.0,28.0,30.05,NW,313,2.0,6.0,92,0.00,,,0.00,,2013-03-08 10:52:00,
2013-03-08 06:01:00,30.0,28.0,30.05,NNW,346,2.0,6.0,92,0.00,,,0.00,,2013-03-08 11:01:00,
2013-03-08 06:11:00,30.0,28.0,30.05,NNW,346,2.0,6.0,92,0.00,,,0.00,,2013-03-08 11:11:00,
2013-03-08 06:21:00,30.0,28.0,30.05,North,355,3.0,8.0,92,0.00,,,0.00,,2013-03-08 11:21:00,
2013-03-08 06:32:00,30.0,28.0,30.05,North,355,1.0,6.0,92,0.00,,,0.00,,2013-03-08 11:32:00,
2013-03-08 06:42:00,30.0,28.0,30.05,North,355,1.0,6.0,92,0.00,,,0.00,,2013-03-08 11:42:00,
2013-03-08 06:52:00,30.0,28.0,30.06,NNW,347,3.0,6.0,91,0.00,,,0.00,,2013-03-08 11:52:00,
2013-03-08 07:02:00,31.0,28.0,30.06,NNW,327,3.0,6.0,89,0.00,,,0.00,,2013-03-08 12:02:00,
2013-03-08 07:11:00,31.0,28.0,30.06,NNW,327,3.0,6.0,89,0.00,,,0.00,,2013-03-08 12:11:00,
2013-03-08 07:22:00,31.0,28.0,30.06,NNW,330,2.0,5.0,89,0.00,,,0.00,,2013-03-08 12:22:00,
2013-03-08 07:32:00,30.0,28.0,30.06,North,355,2.0,8.0,91,0.00,,,0.00,,2013-03-08 12:32:00,
2013-03-08 07:43:00,30.0,28.0,30.06,North,355,2.0,8.0,91,0.00,,,0.00,,2013-03-08 12:43:00,
2013-03-08 07:53:00,30.0,28.0,30.06,NE,42,4.0,7.0,91,0.00,,,0.00,,2013-03-08 12:53:00,
2013-03-08 08:01:00,31.0,29.0,30.06,North,360,2.0,5.0,91,0.00,,,0.00,,2013-03-08 13:01:00,
2013-03-08 08:11:00,31.0,29.0,30.06,North,360,2.0,5.0,91,0.00,,,0.00,,2013-03-08 13:11:00,
2013-03-08 08:22:00,31.0,29.0,30.07,NNW,346,3.0,8.0,91,0.00,,,0.00,,2013-03-08 13:22:00,
2013-03-08 08:32:00,31.0,29.0,30.06,NNW,345,2.0,7.0,91,0.00,,,0.00,,2013-03-08 13:32:00,
2013-03-08 08:42:00,31.0,29.0,30.06,NNW,345,2.0,7.0,91,0.00,,,0.00,,2013-03-08 13:42:00,
2013-03-08 08:52:00,31.0,29.0,30.06,North,355,2.0,7.0,92,0.00,,,0.00,,2013-03-08 13:52:00,
2013-03-08 09:02:00,31.0,29.0,30.06,North,5,3.0,6.0,91,0.00,,,0.00,,2013-03-08 14:02:00,
2013-03-08 09:11:00,31.0,29.0,30.06,North,5,3.0,6.0,91,0.00,,,0.00,,2013-03-08 14:11:00,
2013-03-08 09:22:00,31.0,29.0,30.06,North,360,3.0,9.0,92,0.00,,,0.00,,2013-03-08 14:22:00,
2013-03-08 09:32:00,31.0,29.0,30.06,North,360,3.0,9.0,92,0.00,,,0.00,,2013-03-08 14:32:00,
2013-03-08 09:42:00,31.0,29.0,30.06,North,360,3.0,9.0,92,0.00,,,0.00,,2013-03-08 14:42:00,
2013-03-08 09:53:00,31.0,29.0,30.07,North,350,3.0,7.0,92,0.00,,,0.00,,2013-03-08 14:53:00,
2013-03-08 10:03:00,31.0,29.0,30.07,ENE,78,3.0,7.0,92,0.00,,,0.00,,2013-03-08 15:03:00,
2013-03-08 10:12:00,32.0,30.0,30.08,NNE,22,2.0,8.0,93,0.00,,,0.00,,2013-03-08 15:12:00,
2013-03-08 10:22:00,32.0,30.0,30.08,NNE,22,2.0,8.0,93,0.00,,,0.00,,2013-03-08 15:22:00,
2013-03-08 10:32:00,32.0,30.0,30.08,NNW,342,2.0,6.0,92,0.00,,,0.00,,2013-03-08 15:32:00,
2013-03-08 10:42:00,32.0,30.0,30.08,NNW,342,2.0,6.0,92,0.00,,,0.00,,2013-03-08 15:42:00,
2013-03-08 10:53:00,32.0,30.0,30.08,North,355,2.0,6.0,93,0.00,,,0.00,,2013-03-08 15:53:00,
2013-03-08 11:01:00,32.0,30.0,30.08,NNW,347,2.0,9.0,93,0.00,,,0.00,,2013-03-08 16:01:00,
2013-03-08 11:11:00,32.0,30.0,30.08,NNW,347,2.0,9.0,93,0.00,,,0.00,,2013-03-08 16:11:00,
2013-03-08 11:22:00,33.0,31.0,30.08,NNE,13,5.0,12.0,92,0.00,,,0.00,,2013-03-08 16:22:00,
2013-03-08 11:32:00,33.0,31.0,30.09,NNW,344,5.0,10.0,92,0.00,,,0.00,,2013-03-08 16:32:00,
2013-03-08 11:42:00,33.0,31.0,30.09,NNW,344,5.0,10.0,92,0.00,,,0.00,,2013-03-08 16:42:00,
2013-03-08 11:52:00,33.0,31.0,30.09,NNW,344,5.0,10.0,92,0.00,,,0.00,,2013-03-08 16:52:00,
2013-03-08 12:03:00,33.0,31.0,30.09,NNW,333,2.0,7.0,92,0.00,,,0.00,,2013-03-08 17:03:00,
2013-03-08 12:11:00,33.0,31.0,30.09,NNW,333,2.0,7.0,92,0.00,,,0.00,,2013-03-08 17:11:00,
2013-03-08 12:22:00,33.0,31.0,30.09,NW,323,3.0,8.0,92,0.01,,,0.01,,2013-03-08 17:22:00,
2013-03-08 12:32:00,34.0,32.0,30.09,North,350,4.0,8.0,91,0.03,,,0.03,,2013-03-08 17:32:00,
2013-03-08 12:42:00,34.0,32.0,30.09,North,350,4.0,8.0,91,0.03,,,0.03,,2013-03-08 17:42:00,
2013-03-08 12:52:00,34.0,31.0,30.07,NNE,20,4.0,8.0,89,0.04,,,0.04,,2013-03-08 17:52:00,
2013-03-08 13:02:00,35.0,32.0,30.07,NW,317,4.0,8.0,87,0.05,,,0.05,,2013-03-08 18:02:00,
2013-03-08 13:11:00,35.0,32.0,30.07,NW,317,4.0,8.0,87,0.05,,,0.05,,2013-03-08 18:11:00,
2013-03-08 13:21:00,36.0,31.0,30.07,NNW,329,3.0,10.0,82,0.04,,,0.05,,2013-03-08 18:21:00,
2013-03-08 13:32:00,37.0,31.0,30.06,NNW,336,3.0,8.0,80,0.02,,,0.05,,2013-03-08 18:32:00,
2013-03-08 13:42:00,37.0,31.0,30.06,NNW,336,3.0,8.0,80,0.02,,,0.05,,2013-03-08 18:42:00,
2013-03-08 13:52:00,38.0,33.0,30.06,WNW,292,3.0,6.0,81,0.01,,,0.05,,2013-03-08 18:52:00,
2013-03-08 14:01:00,38.0,32.0,30.06,North,360,4.0,8.0,80,0.00,,,0.05,,2013-03-08 19:01:00,
2013-03-08 14:11:00,38.0,32.0,30.06,North,360,4.0,8.0,80,0.00,,,0.05,,2013-03-08 19:11:00,
2013-03-08 14:22:00,39.0,33.0,30.06,North,355,3.0,8.0,80,0.00,,,0.05,,2013-03-08 19:22:00,
2013-03-08 14:32:00,39.0,34.0,30.06,NNW,331,3.0,9.0,81,0.00,,,0.05,,2013-03-08 19:32:00,
2013-03-08 14:42:00,39.0,34.0,30.06,NNW,331,3.0,9.0,81,0.00,,,0.05,,2013-03-08 19:42:00,
2013-03-08 14:52:00,40.0,33.0,30.06,ENE,57,3.0,9.0,76,0.00,,,0.05,,2013-03-08 19:52:00,
2013-03-08 15:01:00,41.0,33.0,30.06,SW,227,1.0,11.0,74,0.00,,,0.05,,2013-03-08 20:01:00,
2013-03-08 15:11:00,41.0,33.0,30.06,SW,227,1.0,11.0,74,0.00,,,0.05,,2013-03-08 20:11:00,
2013-03-08 15:22:00,42.0,33.0,30.06,NNW,339,4.0,10.0,70,0.00,,,0.05,,2013-03-08 20:22:00,
2013-03-08 15:32:00,42.0,32.0,30.06,North,5,3.0,10.0,68,0.00,,,0.05,,2013-03-08 20:32:00,
2013-03-08 15:42:00,42.0,32.0,30.06,North,5,3.0,10.0,68,0.00,,,0.05,,2013-03-08 20:42:00,
2013-03-08 15:53:00,42.0,32.0,30.06,North,5,3.0,10.0,68,0.00,,,0.05,,2013-03-08 20:53:00,
2013-03-08 16:02:00,43.0,34.0,30.07,North,350,2.0,8.0,70,0.00,,,0.05,,2013-03-08 21:02:00,
2013-03-08 16:11:00,43.0,34.0,30.07,North,350,2.0,8.0,70,0.00,,,0.05,,2013-03-08 21:11:00,
2013-03-08 16:22:00,43.0,33.0,30.07,North,5,3.0,7.0,67,0.00,,,0.05,,2013-03-08 21:22:00,
2013-03-08 16:32:00,43.0,32.0,30.08,NE,44,5.0,11.0,65,0.00,,,0.05,,2013-03-08 21:32:00,
2013-03-08 16:42:00,43.0,32.0,30.08,NE,44,5.0,11.0,65,0.00,,,0.05,,2013-03-08 21:42:00,
2013-03-08 16:52:00,43.0,32.0,30.09,North,355,2.0,13.0,65,0.00,,,0.05,,2013-03-08 21:52:00,
2013-03-08 17:01:00,43.0,32.0,30.10,North,360,3.0,10.0,64,0.00,,,0.05,,2013-03-08 22:01:00,
2013-03-08 17:11:00,43.0,32.0,30.10,North,360,3.0,10.0,64,0.00,,,0.05,,2013-03-08 22:11:00,
2013-03-08 17:22:00,44.0,33.0,30.11,ENE,59,2.0,7.0,65,0.00,,,0.05,,2013-03-08 22:22:00,
2013-03-08 17:32:00,43.0,32.0,30.11,NNW,347,2.0,6.0,64,0.00,,,0.05,,2013-03-08 22:32:00,
2013-03-08 17:42:00,43.0,32.0,30.11,NNW,347,2.0,6.0,64,0.00,,,0.05,,2013-03-08 22:42:00,
2013-03-08 17:53:00,43.0,31.0,30.12,North,355,4.0,8.0,63,0.00,,,0.05,,2013-03-08 22:53:00,
2013-03-08 18:01:00,43.0,31.0,30.12,West,275,4.0,8.0,62,0.00,,,0.05,,2013-03-08 23:01:00,
2013-03-08 18:12:00,43.0,31.0,30.12,West,275,4.0,8.0,62,0.00,,,0.05,,2013-03-08 23:12:00,
2013-03-08 18:22:00,43.0,31.0,30.13,NNW,333,4.0,9.0,62,0.00,,,0.05,,2013-03-08 23:22:00,
2013-03-08 18:32:00,42.0,30.0,30.13,NW,323,2.0,8.0,63,0.00,,,0.05,,2013-03-08 23:32:00,
2013-03-08 18:42:00,42.0,30.0,30.13,NW,323,2.0,8.0,63,0.00,,,0.05,,2013-03-08 23:42:00,
2013-03-08 18:53:00,42.0,30.0,30.14,WNW,292,3.0,6.0,63,0.00,,,0.05,,2013-03-08 23:53:00,
2013-03-08 19:02:00,42.0,30.0,30.14,WNW,298,4.0,12.0,63,0.00,,,0.05,,2013-03-09 00:02:00,
2013-03-08 19:12:00,42.0,30.0,30.14,WNW,298,4.0,12.0,63,0.00,,,0.05,,2013-03-09 00:12:00,
2013-03-08 19:22:00,41.0,29.0,30.15,North,5,3.0,6.0,63,0.00,,,0.05,,2013-03-09 00:22:00,
2013-03-08 19:32:00,41.0,29.0,30.16,North,360,3.0,8.0,63,0.00,,,0.05,,2013-03-09 00:32:00,
2013-03-08 19:42:00,41.0,29.0,30.16,North,360,3.0,8.0,63,0.00,,,0.05,,2013-03-09 00:42:00,
2013-03-08 19:52:00,40.0,28.0,30.16,NNW,329,1.0,5.0,63,0.00,,,0.05,,2013-03-09 00:52:00,
2013-03-08 20:01:00,40.0,28.0,30.17,NNE,27,3.0,7.0,63,0.00,,,0.05,,2013-03-09 01:01:00,
2013-03-08 20:12:00,40.0,28.0,30.17,NNE,27,3.0,7.0,63,0.00,,,0.05,,2013-03-09 01:12:00,
2013-03-08 20:22:00,40.0,28.0,30.17,NNE,27,3.0,7.0,63,0.00,,,0.05,,2013-03-09 01:22:00,
2013-03-08 20:32:00,40.0,28.0,30.19,NNE,15,3.0,5.0,63,0.00,,,0.05,,2013-03-09 01:32:00,
2013-03-08 20:42:00,40.0,28.0,30.19,NNE,15,3.0,5.0,63,0.00,,,0.05,,2013-03-09 01:42:00,
2013-03-08 20:52:00,40.0,28.0,30.19,NNE,15,3.0,5.0,63,0.00,,,0.05,,2013-03-09 01:52:00,
2013-03-08 21:01:00,39.0,28.0,30.19,NNW,335,2.0,6.0,64,0.00,,,0.05,,2013-03-09 02:01:00,
2013-03-08 21:11:00,39.0,28.0,30.19,NNW,335,2.0,6.0,64,0.00,,,0.05,,2013-03-09 02:11:00,
2013-03-08 21:21:00,39.0,28.0,30.20,NW,323,2.0,6.0,64,0.00,,,0.05,,2013-03-09 02:21:00,
2013-03-08 21:31:00,39.0,28.0,30.21,NW,321,3.0,5.0,64,0.00,,,0.05,,2013-03-09 02:31:00,
2013-03-08 21:41:00,38.0,27.0,30.21,NNW,346,1.0,4.0,65,0.00,,,0.05,,2013-03-09 02:41:00,
2013-03-08 21:51:00,38.0,27.0,30.21,NNW,346,1.0,4.0,65,0.00,,,0.05,,2013-03-09 02:51:00,
2013-03-08 22:01:00,38.0,28.0,30.21,NW,311,1.0,4.0,66,0.00,,,0.05,,2013-03-09 03:01:00,
2013-03-08 22:11:00,38.0,28.0,30.21,NW,311,1.0,4.0,66,0.00,,,0.05,,2013-03-09 03:11:00,
2013-03-08 22:21:00,38.0,27.0,30.21,NNW,344,2.0,5.0,65,0.00,,,0.05,,2013-03-09 03:21:00,
2013-03-08 22:31:00,38.0,28.0,30.22,NW,305,0.0,5.0,66,0.00,,,0.05,,2013-03-09 03:31:00,
2013-03-08 22:41:00,38.0,28.0,30.22,NW,305,0.0,5.0,66,0.00,,,0.05,,2013-03-09 03:41:00,
2013-03-08 22:52:00,38.0,27.0,30.22,NW,307,0.0,3.0,65,0.00,,,0.05,,2013-03-09 03:52:00,
2013-03-08 23:01:00,37.0,27.0,30.22,NNW,331,2.0,6.0,66,0.00,,,0.05,,2013-03-09 04:01:00,
2013-03-08 23:11:00,37.0,27.0,30.22,NNW,331,2.0,6.0,66,0.00,,,0.05,,2013-03-09 04:11:00,
2013-03-08 23:22:00,37.0,27.0,30.22,North,351,1.0,4.0,66,0.00,,,0.05,,2013-03-09 04:22:00,
2013-03-08 23:32:00,37.0,27.0,30.22,WNW,299,3.0,4.0,66,0.00,,,0.05,,2013-03-09 04:32:00,
2013-03-08 23:42:00,37.0,27.0,30.22,WNW,299,3.0,4.0,66,0.00,,,0.05,,2013-03-09 04:42:00,
2013-03-08 23:52:00,36.0,26.0,30.22,NNE,13,1.0,4.0,66,0.00,,,0.05,,2013-03-09 04:52:00,